Location: Cassano d�Adda
(45.5333°N, 9.5167°E)
Time: 21:29:23
(UTC+00:00)

Feng Yun 1-1 Rocket - Pass Details

Date: 08 December 2019
Orbit: 830 x 933 km, 99.2° (Epoch: 18 January)

Event Time Altitude Azimuth Distance (km) Brightness Sun altitude
Rises 16:42:21 0° 164° (SSE) 3,375 7.4 -10.8°
Reaches altitude 10° 16:44:42 10° 164° (SSE) 2,438 6.7 -11.2°
Maximum altitude 16:50:06 87° 255° (WSW) 838 4.2 -12.1°
Drops below altitude 10° 16:55:31 10° 345° (NNW) 2,451 6.6 -13.0°
Sets 16:57:53 0° 345° (NNW) 3,394 7.3 -13.4°
